Temperature
18 18 18 17 17 17 17 17 17 17 17 17 17 16 16 16 16 16 16 16 16 16 16 16 16 16 16 16 16 16 16 16 16 16 16 16 16 16 16 15 15 15 15
18 18 18 17 17 17 17 17 17 17 17 17 16 16 16 16 16 16 16 16 16 16 16 16 16 16 16 16 15 15 16 15 15 15 16 16 15 15 15 15 15 15 15
18 18 18 17 17 17 17 17 17 17 16 16 16 16 16 16 16 16 16 16 16 15 15 15 15 15 15 15 15 15 15 15 15 15 15 15 15 15 15 14 14 14 14
17 17 17 17 17 17 17 16 16 16 16 16 16 16 16 16 16 15 15 15 15 15 15 15 15 15 15 15 15 14 14 14 14 14 14 14 14 14 14 14 14 14 14
17 17 17 17 16 16 16 16 16 16 16 16 16 16 15 15 15 15 15 15 15 15 15 15 14 14 14 14 14 14 14 14 14 14 14 14 14 14 14 13 13 13 13
17 17 17 16 16 16 16 16 16 16 16 16 15 15 15 15 15 15 15 15 14 14 14 14 14 14 14 14 14 14 14 13 13 13 13 13 13 13 13 13 12 12 12
17 17 16 16 16 16 16 16 15 15 15 15 15 15 15 15 14 15 14 14 14 14 14 14 13 13 13 13 13 13 13 13 13 12 12 12 12 12 12 12 11 11 11
17 16 16 16 16 15 15 15 15 15 15 15 14 14 14 14 14 14 14 14 14 14 13 13 13 13 13 13 13 12 12 12 12 12 12 12 11 11 11 11 11 11 11
16 16 16 15 15 15 15 15 15 15 14 14 14 14 14 14 14 14 14 13 13 13 13 13 13 13 12 12 12 12 12 11 11 11 11 11 11 11 11 11 11 11 10
16 15 15 15 15 15 15 15 14 14 14 14 13 13 13 13 13 13 13 13 12 12 12 12 12 12 12 12 11 11 11 10 10 10 10 10 10 10 10 10 10 10 10
15 15 15 15 15 15 14 14 14 14 13 13 13 13 12 12 12 12 12 12 12 12 11 11 11 11 11 11 11 10 10 10 9 10 10 9 9 9 9 9 9 8 8
15 15 14 14 14 14 14 13 13 13 13 12 12 12 12 12 12 11 11 11 11 11 10 10 10 10 10 10 10 10 9 9 9 9 9 9 8 8 8 8 7 7 7
14 14 14 14 13 13 13 13 12 12 12 12 11 11 11 11 11 11 11 11 11 10 10 10 10 9 9 9 9 9 8 8 8 8 8 7 7 7 7 7 7 7 7
14 14 13 13 12 12 12 12 12 11 11 11 11 11 10 10 10 10 10 10 10 9 9 9 9 9 8 8 8 8 8 7 7 7 7 7 7 7 6 6 6 7 7
13 13 12 12 12 12 11 11 11 11 11 10 10 10 10 10 9 9 9 9 9 9 8 8 8 8 8 7 7 7 7 7 7 7 7 7 6 6 6 6 6 6 7
12 12 12 11 11 11 10 10 10 10 10 10 10 9 9 9 9 9 8 8 8 8 8 8 8 8 7 7 7 7 6 6 6 6 6 6 6 6 6 6 6 6 6
12 12 11 11 10 10 10 10 9 9 9 9 9 9 8 8 8 8 8 8 8 8 8 8 7 7 7 7 6 6 6 6 5 6 6 6 6 6 6 6 6 6 6
11 11 11 10 10 10 9 9 9 9 8 8 8 8 8 8 7 7 7 7 7 7 7 7 7 6 6 6 6 6 5 5 5 5 5 5 5 5 6 6 5 5 5
11 11 10 10 10 9 9 9 9 8 8 8 7 7 7 7 7 7 7 7 7 7 7 6 6 6 6 5 5 5 5 5 5 5 5 5 5 5 5 5 5 5 5
10 10 10 10 9 9 9 9 8 8 8 8 7 7 7 7 7 7 7 7 7 6 6 6 6 5 5 5 5 5 5 5 5 5 4 4 4 5 5 5 5 5 5
10 10 9 9 9 9 9 9 8 8 8 8 7 7 7 7 7 7 6 6 6 6 6 5 5 5 5 5 5 5 5 5 4 4 4 4 4 4 4 5 5 5 5
10 9 9 9 9 9 8 8 8 8 8 7 7 6 6 7 7 7 6 6 6 5 5 5 5 5 5 5 4 4 4 4 4 4 4 4 4 4 4 4 4 4 4
9 9 9 9 8 8 8 8 8 8 7 7 7 7 7 7 7 6 6 6 5 5 5 5 5 5 4 4 4 4 4 4 4 4 4 4 4 4 4 4 4 4 4
9 9 9 8 8 8 8 8 8 8 7 7 7 7 7 6 6 6 6 5 5 5 5 5 4 4 4 4 4 4 4 4 4 4 3 4 4 4 4 4 4 4 4
9 9 8 8 8 8 8 8 8 7 7 7 7 7 7 6 6 6 6 5 5 5 5 4 4 4 4 4 4 4 4 4 4 4 3 3 3 3 4 4 4 4 4
9 8 8 8 8 8 8 8 8 7 7 7 7 7 6 6 6 6 5 5 5 5 5 4 4 4 4 4 4 4 4 4 4 4 3 3 3 3 3 4 4 4 4
Wind_Speed
6 5 4 4 3 3 3 3 3 3 4 4 5 5 6 6 6 6 6 6 7 6 6 7 7 7 6 6 6 7 7 7 8 7 4 2 2 3 2 2 2 1 1
6 5 5 4 3 3 3 2 2 3 3 4 5 5 6 6 5 6 7 6 6 6 6 6 6 5 6 6 6 7 7 7 7 8 5 3 3 3 2 2 2 2 1
6 6 5 4 3 2 2 2 2 2 3 3 4 4 4 4 5 6 5 5 5 6 5 5 5 5 6 5 6 6 5 6 5 6 6 3 3 3 2 2 2 1 1
7 6 5 4 3 3 2 2 1 2 2 2 3 3 3 3 4 4 4 4 4 4 4 3 3 4 4 5 5 5 5 5 4 4 5 4 3 2 2 3 2 1 1
6 6 5 4 3 3 2 2 2 1 1 1 1 2 2 2 2 2 3 3 3 2 1 1 1 2 3 2 2 2 3 3 3 3 3 2 2 2 2 3 2 1 1
5 5 5 4 4 3 3 3 2 2 1 2 1 1 1 1 3 2 0 1 0 0 0 1 0 1 3 3 4 5 4 2 3 2 2 2 2 2 2 2 2 2 1
6 5 5 4 4 3 3 3 3 3 3 3 3 3 3 4 5 4 2 1 2 1 1 1 1 2 1 2 3 4 6 7 4 2 2 2 3 3 2 1 1 1 1
6 5 4 4 4 4 4 4 4 3 3 3 4 4 4 5 6 5 4 3 3 3 3 2 2 2 3 1 3 5 6 6 6 4 3 4 4 4 3 2 0 1 1
6 5 5 4 4 4 5 5 4 4 4 4 4 5 5 5 7 5 2 4 4 5 4 5 3 3 5 3 5 6 6 5 10 13 12 11 13 12 8 2 1 0 1
6 5 5 5 5 5 5 5 5 5 5 5 5 5 6 6 7 6 3 4 4 4 4 5 8 6 7 5 5 5 6 5 5 7 8 9 10 12 12 7 4 3 2
7 6 6 6 6 6 6 5 6 6 6 6 7 7 7 7 7 8 6 3 3 4 4 5 6 9 10 9 7 6 6 5 6 7 7 7 7 7 8 9 8 5 4
8 7 7 6 6 6 7 6 6 6 6 6 6 6 6 6 7 8 9 6 4 5 5 6 7 10 12 11 9 8 6 4 5 6 6 6 6 6 6 8 9 9 7
8 8 7 7 7 6 6 6 5 5 5 5 5 5 5 5 7 9 9 8 7 6 7 10 9 8 9 10 10 7 5 5 6 6 6 6 5 5 4 4 5 5 6
9 7 7 7 7 7 6 6 6 5 5 5 5 5 5 5 5 4 5 6 7 7 7 9 9 9 8 8 7 6 7 6 5 5 5 4 4 4 4 4 4 3 3
9 8 8 8 8 9 9 8 7 7 5 4 5 5 5 5 5 7 5 5 5 5 6 6 6 6 7 7 7 6 6 6 6 5 5 4 4 4 4 4 4 3 3
8 8 7 7 7 8 9 10 16 13 16 16 13 9 9 10 9 11 12 11 9 5 5 7 7 7 7 6 6 6 6 6 5 5 5 5 4 4 4 4 4 4 4
9 8 7 7 7 7 7 8 9 11 16 17 15 14 12 10 11 10 10 9 6 4 6 7 7 6 6 6 6 6 6 6 5 5 5 5 5 4 5 5 5 5 5
10 9 8 7 7 7 7 8 8 8 9 9 10 12 12 11 9 7 5 6 6 5 7 7 7 6 6 6 6 6 6 5 5 5 5 5 5 5 5 5 5 6 5
9 8 8 8 8 8 8 8 8 9 9 8 8 8 8 9 8 6 3 5 7 7 7 7 6 6 6 6 5 5 5 5 5 5 5 5 5 5 5 5 5 4 4
8 10 8 8 9 8 8 8 8 8 8 7 7 7 6 6 6 6 5 5 6 6 6 6 6 5 5 4 4 4 4 4 4 4 5 4 4 4 4 5 5 4 4
10 10 9 8 8 8 8 8 8 7 7 7 7 6 4 5 6 6 5 5 5 5 5 5 4 4 4 3 3 4 4 4 4 4 3 3 4 3 4 4 4 4 5
9 9 8 8 8 8 8 7 7 8 8 8 7 6 2 3 5 5 5 5 5 4 4 3 3 4 3 3 3 3 3 3 3 3 3 3 3 3 4 4 4 5 5
9 9 9 9 8 8 7 7 7 7 7 7 6 6 5 4 5 4 4 4 4 4 4 3 3 3 4 3 3 3 3 3 3 4 3 3 3 4 4 4 5 5 5
9 9 9 9 8 7 7 7 6 6 6 6 5 5 4 4 4 4 3 3 3 3 3 3 3 4 4 3 2 3 4 4 5 3 4 4 4 4 4 4 5 6 5
9 8 8 8 8 7 7 6 6 6 6 5 5 4 4 4 4 3 3 3 3 2 2 2 2 2 2 2 2 4 5 5 6 6 5 4 4 4 5 5 5 6 6
8 8 7 7 7 7 6 6 6 5 5 5 4 4 4 3 3 3 3 2 2 3 2 1 1 1 0 1 2 3 3 3 5 7 7 6 5 5 6 6 7 7 7
Wind_Direction
169 169 168 169 179 185 191 199 203 210 211 217 219 219 221 220 218 217 226 231 235 240 244 245 247 257 261 259 254 253 254 255 259 267 259 253 246 273 275 250 248 235 120
157 158 158 160 165 172 175 190 200 207 215 218 219 222 225 225 224 224 228 232 235 241 246 251 257 255 253 260 261 257 256 256 257 263 266 256 238 246 250 258 268 255 88
151 151 148 155 156 162 167 182 194 201 212 213 212 219 228 231 231 232 233 238 243 248 250 253 262 266 263 261 261 262 262 257 254 260 267 271 265 261 247 235 238 303 272
149 149 148 150 152 161 171 171 177 194 205 211 211 215 222 229 232 232 229 237 245 246 248 259 277 278 277 274 265 267 269 268 258 258 265 263 266 273 269 261 241 221 266
151 149 147 147 148 151 144 139 144 165 187 186 195 211 213 219 232 232 231 228 237 246 250 302 1 35 17 342 298 294 281 264 255 252 264 277 284 287 274 275 278 284 0
151 147 145 146 145 139 132 126 125 126 118 106 99 106 84 37 60 61 273 228 220 279 318 321 16 57 78 80 55 37 18 321 286 279 281 291 310 308 305 296 290 268 269
145 141 141 143 137 132 130 122 114 107 99 93 84 81 75 55 60 71 75 93 91 75 50 13 354 18 30 78 92 90 60 42 21 322 315 325 324 321 314 298 300 308 326
141 138 138 132 123 119 113 105 101 98 95 90 80 77 76 60 56 62 75 95 86 72 56 44 43 31 27 46 98 88 72 53 47 57 55 31 17 358 328 317 293 144 119
131 129 126 122 116 110 103 97 94 95 92 88 83 81 82 65 50 47 72 101 90 76 61 46 49 61 36 62 107 103 93 85 76 75 70 67 58 45 30 28 29 15 48
124 120 117 116 116 110 103 100 96 95 91 87 79 73 77 73 53 43 48 100 97 95 83 68 55 54 49 55 100 102 97 87 86 82 74 66 61 56 51 40 29 34 38
119 116 110 110 109 106 99 96 98 97 92 87 84 75 69 63 59 51 47 84 92 92 82 73 63 62 62 56 65 77 74 79 87 83 76 67 60 54 49 47 41 40 43
112 108 104 101 101 103 101 95 95 99 99 95 91 83 71 65 58 58 59 57 54 87 83 83 79 77 72 64 68 67 67 72 83 79 71 64 56 50 48 50 52 52 53
112 108 105 101 95 97 99 98 95 90 92 95 95 89 80 76 76 74 72 67 62 82 83 82 86 91 96 81 72 65 68 75 76 75 70 60 54 50 52 63 71 80 80
114 110 106 103 98 89 80 77 79 78 86 90 91 91 87 80 71 76 90 96 102 100 99 106 105 89 89 87 89 77 69 66 69 76 72 64 58 53 47 42 43 46 57
114 110 106 101 97 88 75 60 67 58 55 75 86 85 88 84 57 46 70 84 87 91 104 99 91 87 83 80 76 71 68 69 65 62 63 59 53 51 48 41 28 28 37
117 113 111 110 109 109 103 86 61 64 60 58 56 69 76 77 82 75 72 71 71 74 92 89 82 77 75 75 74 72 65 57 53 53 53 49 46 45 42 36 26 23 26
123 121 120 118 119 119 118 113 103 80 69 62 59 64 77 84 83 84 84 81 71 69 86 82 78 75 73 71 68 64 60 56 45 48 47 43 39 40 40 33 27 23 24
122 119 122 122 123 121 118 115 113 111 103 88 71 71 79 83 83 84 100 111 88 80 78 78 77 74 70 66 64 62 60 57 50 45 43 38 34 32 32 30 31 20 15
124 124 122 121 121 119 118 115 112 110 108 107 107 97 96 104 97 79 79 84 83 81 79 77 75 75 73 69 64 61 59 54 46 40 44 36 30 28 24 22 31 27 353
111 109 121 124 123 122 122 120 117 117 116 115 112 114 127 129 109 103 95 83 83 83 82 82 78 74 70 68 68 64 64 60 52 45 43 35 29 22 21 14 11 5 5
121 121 126 126 122 120 119 118 120 121 117 113 106 88 50 108 101 97 92 86 82 82 82 81 83 79 72 63 60 62 57 54 49 41 38 29 21 13 3 3 0 356 359
125 128 124 118 117 117 118 121 122 120 121 118 118 119 109 113 102 98 93 90 87 85 84 80 75 71 61 60 56 48 45 43 34 22 17 9 0 355 354 355 357 350 350
122 121 118 116 116 122 125 122 124 126 125 124 124 125 127 111 104 99 97 94 91 88 85 83 75 69 66 59 48 35 23 22 10 357 339 337 342 346 348 351 340 334 344
124 124 123 125 129 132 127 129 129 128 127 126 123 121 118 114 110 107 108 107 107 103 97 89 80 71 56 42 39 42 32 9 344 334 324 320 326 332 335 334 331 337 334
126 127 129 132 135 136 136 136 133 130 128 127 128 127 125 125 125 124 123 123 127 120 114 107 101 89 65 34 24 35 41 11 344 333 310 300 312 319 320 322 325 323 323
127 130 133 136 138 141 143 143 140 139 138 137 136 135 136 139 139 141 146 153 161 156 168 165 136 94 295 326 54 51 25 342 326 318 306 298 303 309 315 311 315 312 315
Height
1542 1544 1544 1545 1546 1546 1547 1548 1548 1550 1551 1552 1553 1554 1555 1556 1557 1558 1559 1560 1561 1562 1562 1563 1563 1563 1564 1565 1565 1565 1565 1565 1564 1564 1565 1564 1564 1564 1563 1563 1563 1563 1562
1542 1542 1543 1544 1545 1545 1546 1547 1547 1548 1549 1550 1551 1551 1552 1553 1554 1555 1556 1557 1558 1559 1559 1559 1560 1560 1559 1560 1560 1560 1560 1560 1561 1560 1560 1561 1560 1560 1559 1559 1559 1559 1559
1541 1542 1542 1544 1544 1545 1545 1546 1547 1547 1548 1548 1549 1549 1550 1551 1551 1552 1553 1554 1555 1555 1556 1556 1556 1556 1555 1555 1555 1556 1556 1556 1556 1556 1556 1556 1557 1556 1556 1555 1555 1555 1555
1540 1541 1542 1543 1544 1544 1545 1545 1545 1546 1546 1547 1547 1547 1548 1548 1549 1549 1550 1551 1551 1552 1552 1552 1552 1552 1552 1551 1551 1551 1552 1552 1552 1552 1552 1553 1553 1553 1552 1552 1552 1552 1551
1540 1540 1541 1542 1543 1543 1544 1544 1544 1545 1545 1545 1545 1545 1546 1546 1546 1547 1547 1548 1549 1549 1549 1549 1549 1549 1548 1548 1548 1548 1548 1548 1549 1549 1549 1549 1549 1549 1549 1549 1549 1548 1547
1539 1540 1540 1541 1542 1542 1543 1543 1543 1544 1544 1544 1544 1544 1544 1544 1545 1545 1546 1546 1546 1547 1547 1547 1547 1546 1546 1546 1546 1546 1546 1546 1546 1547 1546 1546 1546 1546 1546 1546 1545 1545 1544
1538 1539 1540 1540 1541 1541 1542 1542 1542 1542 1542 1543 1543 1542 1542 1543 1543 1543 1544 1544 1545 1545 1545 1545 1545 1545 1544 1544 1544 1544 1544 1544 1544 1544 1544 1544 1544 1544 1543 1543 1542 1542 1541
1538 1538 1539 1540 1540 1541 1541 1541 1541 1541 1541 1541 1541 1541 1541 1541 1542 1542 1543 1543 1543 1543 1543 1543 1543 1542 1542 1542 1543 1542 1542 1542 1542 1542 1542 1541 1541 1541 1540 1541 1540 1539 1539
1537 1538 1538 1539 1540 1540 1540 1540 1540 1541 1540 1540 1540 1540 1541 1541 1541 1541 1542 1542 1542 1542 1542 1541 1542 1541 1541 1541 1541 1541 1541 1541 1541 1540 1540 1539 1539 1538 1538 1538 1538 1538 1537
1536 1537 1538 1539 1539 1540 1540 1540 1540 1540 1540 1540 1540 1540 1540 1540 1541 1541 1541 1541 1541 1541 1541 1541 1540 1540 1540 1540 1540 1540 1540 1541 1541 1540 1539 1539 1538 1537 1536 1536 1536 1536 1536
1535 1536 1537 1538 1539 1539 1539 1539 1539 1539 1539 1540 1540 1540 1540 1540 1540 1540 1540 1540 1540 1540 1540 1540 1540 1540 1540 1540 1540 1540 1540 1541 1540 1540 1539 1538 1538 1537 1536 1536 1535 1535 1536
1534 1535 1536 1537 1538 1539 1539 1539 1539 1539 1539 1540 1540 1540 1540 1540 1540 1540 1540 1540 1540 1540 1540 1540 1540 1541 1541 1540 1540 1540 1541 1541 1541 1540 1540 1539 1538 1538 1537 1536 1535 1535 1535
1533 1535 1536 1537 1538 1539 1539 1539 1539 1540 1540 1540 1540 1541 1541 1541 1541 1540 1540 1540 1539 1539 1540 1540 1541 1541 1541 1541 1541 1541 1541 1542 1541 1541 1540 1540 1540 1539 1538 1538 1537 1536 1536
1533 1534 1536 1537 1538 1538 1538 1539 1539 1540 1540 1540 1541 1541 1541 1541 1541 1541 1541 1541 1541 1541 1541 1541 1542 1542 1542 1542 1542 1543 1543 1543 1543 1542 1542 1542 1542 1541 1541 1540 1540 1539 1538
1533 1534 1535 1537 1537 1538 1538 1539 1540 1540 1540 1541 1541 1542 1542 1542 1542 1541 1542 1542 1542 1542 1543 1544 1544 1545 1545 1545 1545 1545 1545 1545 1545 1545 1545 1544 1544 1543 1543 1542 1541 1540 1540
1533 1534 1535 1537 1538 1539 1540 1540 1541 1541 1542 1542 1542 1543 1543 1543 1543 1543 1543 1543 1543 1544 1545 1546 1546 1547 1547 1547 1547 1547 1547 1547 1547 1547 1546 1546 1545 1545 1544 1543 1542 1541 1541
1532 1534 1536 1537 1539 1540 1541 1542 1542 1543 1544 1544 1545 1545 1545 1546 1546 1546 1546 1546 1547 1547 1548 1548 1549 1549 1549 1550 1549 1549 1549 1549 1548 1549 1548 1548 1547 1547 1546 1545 1544 1543 1542
1533 1534 1536 1538 1539 1541 1542 1543 1544 1545 1546 1546 1547 1548 1548 1549 1549 1549 1549 1550 1550 1551 1551 1551 1551 1551 1552 1552 1552 1552 1552 1551 1551 1551 1550 1550 1549 1548 1547 1546 1545 1544 1543
1533 1535 1537 1539 1540 1542 1543 1545 1546 1547 1548 1549 1550 1550 1551 1552 1552 1552 1552 1553 1553 1554 1554 1554 1554 1554 1554 1554 1554 1554 1554 1554 1553 1553 1552 1551 1550 1550 1549 1548 1546 1545 1544
1534 1536 1538 1540 1542 1543 1545 1546 1548 1549 1550 1551 1552 1553 1554 1555 1555 1555 1555 1556 1556 1556 1556 1556 1557 1557 1557 1557 1556 1556 1556 1555 1555 1554 1554 1553 1552 1551 1550 1549 1548 1546 1545
1535 1537 1539 1541 1543 1545 1546 1548 1549 1551 1552 1553 1554 1555 1556 1557 1557 1558 1558 1558 1558 1559 1559 1559 1559 1559 1559 1558 1558 1558 1557 1557 1556 1556 1555 1554 1553 1552 1551 1550 1549 1547 1546
1537 1539 1541 1543 1544 1546 1548 1549 1551 1552 1554 1555 1556 1557 1557 1559 1560 1560 1560 1560 1560 1560 1560 1560 1560 1560 1560 1560 1559 1559 1558 1558 1557 1557 1556 1555 1554 1553 1552 1551 1549 1548 1546
1539 1541 1543 1544 1546 1548 1550 1552 1553 1554 1556 1557 1558 1559 1560 1560 1561 1561 1561 1562 1562 1562 1562 1561 1561 1561 1561 1560 1559 1559 1559 1558 1557 1556 1556 1555 1554 1553 1552 1551 1549 1548 1546
1542 1543 1545 1547 1549 1550 1552 1554 1555 1557 1558 1559 1560 1560 1561 1561 1562 1562 1562 1563 1563 1563 1562 1562 1562 1561 1560 1560 1560 1559 1558 1557 1556 1556 1555 1554 1554 1553 1552 1551 1549 1548 1546
1544 1545 1547 1549 1550 1552 1554 1556 1557 1558 1559 1560 1561 1561 1562 1562 1562 1563 1563 1563 1563 1563 1563 1563 1562 1562 1561 1560 1560 1559 1557 1556 1555 1555 1554 1554 1553 1552 1551 1550 1548 1547 1545
1546 1548 1549 1551 1552 1554 1556 1557 1558 1559 1560 1561 1561 1562 1563 1563 1563 1563 1563 1563 1564 1563 1563 1563 1562 1561 1560 1560 1559 1558 1557 1556 1555 1554 1553 1553 1552 1551 1550 1548 1547 1545 1544